Wind_Speed
35 37 38 39 40 41 41 41 41 41 41 41 40 40 40 40 41 42 43 43 45 46 46 47 48 48 50 51 52 52 53 54 56 57 57 57 57 58 58 58 58 58 57
35 36 38 39 39 40 40 41 41 41 42 41 41 40 40 41 41 42 43 44 46 46 46 47 47 48 49 49 50 50 51 52 53 53 53 54 54 54 54 54 53 52 51
36 37 38 38 39 39 40 41 41 42 42 41 41 41 40 41 42 43 43 44 45 46 45 46 46 45 45 47 47 48 49 49 49 49 50 50 50 49 48 48 48 46 45
36 37 37 38 39 39 40 41 41 41 41 41 41 41 41 41 42 42 42 43 43 43 44 44 44 44 45 45 46 46 46 46 46 45 45 44 43 42 41 40 39 39 38
35 36 37 38 39 39 39 40 39 39 39 39 39 39 39 39 39 39 40 40 40 40 41 41 42 42 42 43 43 42 42 41 39 38 37 36 35 34 33 32 31 31 31
34 35 35 35 36 36 36 36 36 36 36 36 37 36 36 36 36 36 37 37 37 37 38 38 38 38 38 37 36 35 34 33 31 31 30 29 28 27 27 27 27 26 26
32 32 32 33 33 34 34 33 33 33 33 32 32 33 33 33 33 33 33 33 33 33 33 33 32 31 31 30 29 28 28 27 26 26 25 25 25 25 25 25 24 24 23
30 30 30 30 30 30 30 30 31 31 30 30 31 31 31 31 31 30 30 31 30 29 29 29 29 29 28 27 26 25 25 24 24 24 23 23 23 23 23 23 22 22 21
27 27 27 27 27 28 28 28 28 28 28 28 28 28 28 28 27 28 28 27 26 26 26 27 27 26 25 25 24 23 23 22 22 22 22 21 21 21 21 20 20 19 19
24 24 25 25 25 25 25 25 26 26 26 26 26 26 25 26 25 25 24 24 24 24 24 24 24 24 23 22 21 21 20 20 20 20 20 20 20 20 19 19 18 18 18
23 23 23 24 24 24 24 24 24 24 24 24 24 24 24 23 23 23 23 23 22 22 21 21 21 20 20 19 19 19 19 19 19 19 19 19 19 18 18 18 17 17 17
21 21 22 22 22 22 22 22 22 22 22 23 23 22 21 21 20 20 20 20 19 18 18 18 18 18 18 18 18 18 18 19 18 18 18 18 18 17 17 16 16 16 17
20 20 20 20 21 21 20 20 20 20 20 20 20 20 19 18 18 18 17 16 16 15 15 16 16 17 17 16 17 18 18 18 18 17 17 17 16 16 16 16 15 15 16
18 18 18 18 18 19 18 18 18 18 19 18 18 17 17 17 16 16 15 14 14 14 14 15 15 16 16 16 17 18 17 17 16 15 15 15 15 15 14 14 14 14 15
16 16 16 16 16 17 16 16 16 16 16 16 16 15 15 15 14 13 13 13 13 13 14 14 14 15 15 16 16 17 17 16 15 14 14 14 14 14 13 13 13 14 14
14 14 14 13 14 14 14 14 14 14 14 14 14 13 12 11 11 10 11 11 12 12 13 13 13 14 15 15 16 16 15 15 14 14 14 14 13 14 13 13 12 13 14
13 12 12 12 12 12 12 13 13 12 12 12 12 11 10 9 9 9 9 10 11 11 12 12 13 14 14 15 15 16 15 14 14 13 13 13 13 13 13 12 12 12 13
12 12 12 11 11 11 11 11 10 10 10 10 9 8 7 7 7 8 9 10 10 11 12 12 13 13 14 14 15 15 14 14 13 13 13 13 12 13 12 12 12 12 12
11 11 11 10 10 10 10 9 8 8 8 8 7 7 7 7 7 7 9 9 10 11 11 12 12 13 13 14 14 14 14 13 13 13 12 12 12 12 12 11 11 11 11
10 10 10 9 9 9 8 7 7 7 6 6 6 6 6 6 7 7 8 9 10 11 11 12 12 13 13 14 14 14 14 13 13 12 12 11 11 11 11 10 10 10 10
9 8 8 7 7 7 7 6 6 5 5 5 5 5 5 6 6 7 8 9 10 11 11 12 12 13 13 14 14 14 14 13 13 12 11 11 11 11 10 10 10 10 10
8 7 6 6 6 5 5 5 5 4 4 4 4 5 5 6 7 7 8 9 10 11 11 12 12 13 13 13 14 14 14 13 13 12 12 11 11 10 10 10 10 10 10
8 7 7 6 5 5 4 4 4 4 4 4 5 5 6 6 7 8 9 10 10 11 11 12 12 13 13 13 14 14 13 13 12 12 12 11 10 10 10 10 10 11 11
9 9 8 8 7 6 6 5 5 5 4 5 5 6 6 7 8 8 9 10 10 11 12 12 12 13 13 13 13 13 13 12 12 12 12 11 11 11 11 11 11 12 12
11 11 10 9 9 8 7 7 6 6 6 6 6 7 7 8 8 9 9 10 11 11 12 12 13 13 13 13 13 13 13 13 12 12 12 12 12 11 11 12 12 13 13
13 13 12 11 10 9 9 8 8 7 7 7 7 8 8 8 9 9 10 10 11 11 12 13 13 13 13 13 13 13 13 13 13 13 13 13 13 13 13 13 14 14 15
Wind_Direction
267 269 271 274 276 278 280 282 284 286 287 289 289 290 291 290 289 289 290 289 289 289 289 290 290 290 290 289 289 288 288 287 287 287 287 287 287 287 288 287 286 286 285
268 270 272 274 276 279 281 282 283 285 286 287 287 289 289 289 289 289 288 289 289 290 292 292 293 293 294 293 292 291 290 289 289 289 289 289 290 290 289 289 290 289 289
270 271 273 275 278 280 281 282 284 285 286 286 287 288 288 288 288 289 289 290 291 292 294 295 295 295 296 296 295 295 294 293 294 294 294 293 293 292 292 291 292 292 292
271 272 274 275 277 278 279 281 283 284 284 285 287 287 287 288 290 291 292 293 294 295 296 297 298 298 298 298 298 298 297 297 298 298 298 297 297 296 295 295 295 295 294
271 272 273 275 276 278 280 283 284 285 286 287 288 288 290 290 292 293 294 296 297 297 298 299 299 299 299 300 300 301 302 303 304 305 305 305 304 304 302 301 300 300 299
271 273 275 276 278 280 283 284 286 287 287 288 289 290 290 292 294 296 298 298 299 300 301 302 302 302 303 305 307 308 309 310 313 314 315 315 314 313 311 308 306 305 304
272 275 277 279 281 282 283 286 288 289 291 292 293 294 296 297 298 299 300 301 302 303 304 305 307 308 310 311 313 314 316 318 320 320 320 320 320 318 317 316 314 313 311
275 276 278 280 282 283 286 287 288 290 292 294 296 297 298 299 300 301 301 302 303 305 306 308 310 312 313 313 315 317 320 321 322 323 323 324 324 324 324 322 322 321 320
276 279 282 284 285 286 287 288 289 291 294 297 299 299 301 301 301 301 302 303 304 307 307 309 311 313 314 315 316 319 322 323 324 324 326 327 328 329 330 330 330 330 330
282 284 286 288 288 289 290 291 293 295 297 298 299 300 301 302 302 303 303 304 306 308 309 310 312 313 314 317 319 322 323 325 326 327 329 331 332 333 335 337 337 338 338
284 286 287 288 288 289 291 292 294 296 297 298 300 301 302 302 303 304 305 307 309 310 312 313 315 317 320 324 325 326 327 328 330 331 333 334 334 336 338 341 342 344 345
285 286 286 287 288 290 291 292 293 294 296 298 300 302 302 303 305 308 310 312 314 315 317 319 321 324 326 329 331 331 332 332 334 335 336 338 339 341 344 345 346 347 348
286 287 288 289 290 291 291 292 293 294 297 299 301 301 301 303 307 311 313 316 319 321 322 324 326 328 331 333 335 335 335 336 336 337 339 341 343 344 345 345 346 347 349
290 290 291 291 291 293 294 293 294 296 298 299 300 300 301 302 306 310 312 316 320 323 325 327 329 331 333 334 336 337 339 340 341 341 342 342 343 346 347 348 348 348 350
291 291 292 294 295 297 296 295 296 298 299 300 301 301 302 304 307 310 313 318 322 324 327 331 334 334 335 336 339 340 341 341 342 344 344 343 344 349 349 349 351 352 353
295 295 296 298 299 300 300 299 299 300 302 304 304 304 306 309 312 315 320 324 325 328 331 335 337 337 338 339 340 341 341 342 342 343 344 345 346 349 351 351 352 354 355
296 296 297 299 302 303 303 302 302 304 307 310 309 309 311 314 317 321 326 330 332 334 337 338 338 339 340 341 341 341 342 343 343 345 346 348 349 352 354 355 354 356 357
298 297 299 300 303 305 305 305 306 308 312 314 316 318 320 320 323 328 332 335 337 339 340 340 342 343 344 344 346 346 347 348 348 348 349 351 352 354 355 356 357 358 1
302 302 302 303 305 307 308 310 312 313 315 317 320 323 325 326 328 332 337 340 342 343 344 346 347 348 349 349 348 349 350 350 350 350 351 353 355 356 357 358 0 3 6
309 308 306 306 308 310 312 317 318 319 320 322 324 330 333 335 339 342 343 346 348 349 350 351 352 352 351 351 351 350 351 352 353 353 355 356 357 358 0 4 7 12 14
322 318 315 314 314 316 320 323 325 326 327 331 336 340 341 343 346 349 351 352 353 354 355 355 355 355 354 353 353 355 356 357 359 358 359 1 2 4 8 14 19 22 24
346 342 338 333 328 328 332 336 338 339 341 347 352 353 354 354 354 357 359 359 359 360 0 0 0 359 359 359 359 1 2 4 5 6 6 9 12 15 20 25 29 32 34
8 12 10 5 1 0 359 360 4 7 7 7 9 8 7 6 7 7 5 5 6 6 6 6 5 5 5 6 6 8 10 13 14 16 18 23 26 27 31 35 37 39 41
24 28 27 28 31 32 29 27 27 28 26 24 23 23 23 21 18 15 13 13 12 12 11 10 10 9 9 10 12 15 17 19 21 24 27 32 35 37 41 43 45 47 47
37 40 40 40 41 41 40 38 38 40 39 37 35 33 31 27 25 23 22 20 18 17 16 15 14 14 15 17 20 23 25 27 30 33 36 40 43 46 49 51 52 53 54
43 44 43 44 45 44 43 43 45 45 43 43 41 39 37 33 30 29 27 25 23 21 20 20 20 22 24 26 28 31 34 37 40 43 45 49 52 54 56 57 58 59 59
Height
5792 5793 5793 5792 5792 5791 5789 5788 5788 5787 5785 5783 5782 5780 5778 5776 5773 5771 5769 5766 5763 5760 5757 5753 5749 5745 5741 5736 5731 5726 5720 5715 5710 5703 5697 5691 5687 5682 5677 5672 5668 5664 5660
5784 5784 5784 5783 5783 5782 5781 5779 5778 5777 5775 5773 5771 5770 5768 5766 5764 5761 5759 5756 5753 5749 5746 5742 5737 5733 5728 5723 5717 5712 5706 5700 5695 5689 5682 5676 5671 5666 5662 5657 5653 5649 5645
5775 5775 5775 5774 5774 5773 5772 5771 5769 5768 5766 5763 5762 5760 5758 5756 5754 5751 5748 5745 5742 5738 5734 5730 5726 5721 5716 5710 5704 5698 5692 5686 5680 5674 5668 5662 5657 5652 5648 5644 5639 5636 5633
5767 5766 5766 5765 5765 5764 5763 5761 5760 5758 5756 5754 5753 5751 5748 5746 5743 5741 5738 5734 5730 5727 5723 5719 5714 5709 5704 5698 5692 5686 5680 5673 5667 5662 5656 5650 5645 5640 5636 5633 5629 5625 5622
5758 5758 5757 5757 5756 5755 5754 5752 5750 5748 5747 5745 5743 5741 5738 5736 5733 5730 5727 5724 5720 5716 5712 5708 5703 5698 5692 5686 5680 5674 5668 5662 5657 5651 5646 5640 5636 5631 5627 5624 5621 5618 5614
5750 5749 5749 5748 5747 5746 5745 5743 5742 5740 5738 5736 5734 5732 5729 5726 5723 5720 5717 5714 5710 5706 5702 5697 5693 5688 5682 5676 5670 5664 5659 5654 5648 5643 5638 5634 5629 5625 5621 5618 5614 5611 5608
5741 5741 5740 5739 5739 5738 5736 5735 5733 5732 5730 5727 5725 5723 5720 5717 5714 5711 5708 5705 5701 5697 5693 5688 5684 5679 5673 5668 5663 5658 5652 5647 5643 5638 5633 5629 5625 5621 5617 5613 5609 5606 5602
5733 5733 5732 5731 5730 5729 5728 5727 5725 5723 5721 5719 5717 5715 5712 5709 5706 5703 5700 5696 5693 5689 5685 5680 5676 5671 5666 5662 5657 5652 5647 5643 5638 5634 5630 5625 5621 5617 5612 5609 5605 5602 5598
5726 5725 5724 5724 5723 5722 5720 5719 5717 5716 5714 5711 5709 5707 5704 5701 5699 5696 5692 5689 5685 5682 5678 5674 5669 5665 5661 5656 5652 5647 5643 5639 5635 5631 5626 5622 5618 5613 5610 5606 5602 5599 5596
5719 5718 5718 5717 5716 5714 5713 5711 5710 5708 5706 5704 5702 5700 5697 5695 5692 5689 5685 5682 5679 5675 5671 5668 5664 5660 5656 5652 5648 5643 5640 5636 5632 5628 5623 5619 5615 5611 5607 5604 5600 5597 5593
5713 5712 5711 5710 5709 5708 5706 5705 5703 5701 5700 5698 5696 5693 5691 5688 5685 5682 5679 5676 5673 5669 5666 5663 5659 5655 5652 5648 5644 5640 5636 5633 5629 5625 5621 5617 5613 5609 5605 5602 5598 5595 5592
5706 5706 5705 5704 5703 5701 5700 5698 5697 5695 5693 5692 5690 5687 5685 5683 5680 5677 5674 5671 5667 5664 5662 5659 5656 5652 5648 5645 5641 5637 5634 5630 5626 5623 5619 5615 5611 5608 5604 5601 5597 5594 5591
5701 5700 5699 5698 5697 5695 5694 5693 5691 5690 5688 5686 5684 5682 5680 5678 5675 5673 5670 5667 5664 5661 5659 5656 5653 5649 5646 5642 5639 5635 5631 5628 5624 5621 5617 5614 5610 5607 5603 5600 5597 5594 5590
5695 5694 5693 5692 5691 5689 5688 5687 5686 5684 5683 5681 5679 5677 5675 5673 5671 5669 5666 5664 5661 5659 5656 5653 5650 5647 5644 5640 5637 5633 5629 5626 5623 5619 5616 5613 5609 5606 5603 5599 5596 5593 5590
5690 5689 5688 5687 5685 5684 5683 5682 5680 5679 5677 5676 5674 5672 5671 5669 5667 5665 5663 5661 5659 5656 5654 5651 5648 5645 5642 5638 5635 5632 5628 5625 5621 5618 5615 5612 5608 5605 5602 5599 5596 5593 5590
5686 5685 5684 5683 5681 5680 5678 5677 5675 5674 5673 5671 5670 5668 5667 5665 5664 5662 5661 5659 5656 5654 5652 5649 5646 5643 5640 5637 5634 5630 5627 5624 5620 5617 5614 5611 5608 5604 5601 5598 5596 5593 5590
5682 5681 5680 5679 5678 5676 5675 5673 5672 5671 5669 5668 5666 5665 5664 5663 5662 5660 5659 5657 5655 5653 5650 5648 5645 5642 5639 5635 5632 5629 5625 5622 5619 5616 5613 5610 5607 5604 5601 5598 5595 5593 5590
5678 5677 5676 5675 5674 5673 5672 5670 5669 5668 5667 5665 5664 5663 5662 5661 5660 5659 5657 5656 5654 5651 5649 5646 5644 5641 5637 5634 5631 5627 5624 5621 5618 5615 5612 5609 5607 5604 5601 5598 5595 5593 5590
5675 5674 5673 5672 5671 5670 5669 5668 5667 5666 5665 5664 5663 5662 5661 5660 5659 5658 5656 5655 5653 5650 5648 5645 5642 5640 5636 5633 5630 5627 5624 5620 5617 5615 5612 5609 5606 5604 5601 5598 5596 5593 5591
5673 5671 5670 5670 5669 5668 5667 5666 5665 5664 5664 5663 5662 5661 5660 5659 5658 5657 5655 5654 5652 5650 5647 5644 5642 5639 5636 5633 5629 5626 5623 5620 5617 5614 5611 5609 5606 5603 5601 5599 5596 5594 5592
5671 5669 5668 5667 5667 5666 5665 5665 5664 5663 5663 5662 5661 5661 5659 5658 5657 5656 5655 5653 5651 5649 5646 5644 5641 5638 5635 5632 5629 5626 5623 5620 5617 5614 5611 5609 5606 5604 5601 5599 5597 5595 5593
5669 5668 5667 5666 5666 5665 5665 5664 5663 5663 5662 5662 5661 5660 5659 5658 5657 5656 5654 5653 5651 5649 5646 5644 5641 5638 5635 5632 5629 5626 5623 5620 5617 5614 5611 5609 5607 5604 5602 5600 5599 5597 5595
5670 5668 5667 5666 5666 5665 5665 5664 5663 5663 5662 5662 5661 5660 5659 5658 5657 5656 5654 5653 5651 5649 5646 5644 5641 5638 5635 5632 5629 5626 5623 5620 5618 5615 5612 5610 5608 5606 5604 5602 5600 5599 5597
5672 5670 5669 5668 5667 5666 5666 5665 5664 5664 5663 5662 5662 5661 5660 5659 5658 5656 5655 5653 5651 5649 5647 5644 5642 5639 5636 5633 5630 5627 5624 5621 5619 5616 5614 5612 5610 5608 5606 5604 5603 5601 5599
5674 5672 5671 5670 5669 5668 5667 5666 5666 5665 5664 5664 5663 5662 5661 5660 5659 5657 5656 5654 5652 5650 5648 5645 5642 5640 5637 5634 5631 5628 5626 5623 5621 5618 5616 5614 5612 5610 5609 5607 5605 5604 5602
5677 5675 5674 5673 5672 5670 5669 5668 5667 5667 5666 5665 5664 5663 5662 5661 5660 5658 5657 5655 5653 5651 5649 5646 5644 5641 5638 5636 5633 5630 5628 5625 5623 5621 5619 5617 5615 5613 5612 5610 5609 5607 5606